EHI
0 0 0 0 0 0 0 0 0 0 0 0 0 0 0 0 0 0 0 0 0 0 0 0 0 0 0 0 0 0 0 0 0 0 0 0 0 0
0 0 0 0 0 0 0 0 0 0 0 0 0 0 0 0 0 0 0 0 0 0 0 0 0 0 0 0 0 0 0 0 0 0 0 0 0 0
0 0 0 0 0 0 0 0 0 0 0 0 0 0 0 0 0 0 0 0 0 0 0 0 0 0 0 0 0 0 0 0 0 0 0 0 0 0
0 0 0 0 0 0 0 0 0 0 0 0 0 0 0 0 0 0 0 0 0 0 0 0 0 0 0 0 0 0 0 0 0 0 0 0 0 0
0 0 0 0 0 0 0 0 0 0 0 0 0 0 0 0 0 0 0 0 0 0 0 0 0 0 0 0 0 0 0 0 0 0 0 0 0 0
0 0 0 0 0 0 0 0 0 0 0 0 0 0 0 0 0 0 0 0 0 0 0 0 0 0 0 0 0 0 0 0 0 0 0 0 0 0
0 0 0 0 0 0 0 0 0 0 0 0 0 0 0 0 0 0 0 0 0 0 0 0 0 0 0 0 0 0 0 0 0 0 0 0 0 0
0 0 0 0 0 0 0 0 0 0 0 0 0 0 0 0 0 0 0 0 0 0 0 0 0 0 0 0 0 0 0 0 0 0 0 0 0 0
0 0 0 0 0 0 0 0 0 0 0 0 0 0 0 0 0 0 0 0 0 0 0 0 0 0 0 0 0 0 0 0 0 0 0 0 0 0
0 0 0 0 0 0 0 0 0 0 0 0 0 0 0 0 0 0 0 0 0 0 0 0 0 0 0 0 0 0 0 0 0 0 0 0 0 0
0 0 0 0 0 0 0 0 0 0 0 0 0 0 0 0 0 0 0 0 0 0 0 0 0 0 0 0 0 0 0 0 0 0 0 0 0 0
0 0 0 0 0 0 0 0 0 0 0 0 0 0 0 0 0 0 0 0 0 0 0 0 0 0 0 0 0 0 0 0 0 0 0 0 0 0
0 0 0 0 0 0 0 0 0 0 0 0 0 0 0 0 0 0 0 0 0 0 0 0 0 0 0 0 0 0 0 0 0 0 0 0 0 0
0 0 0 0 0 0 0 0 0 0 0 0 0 0 0 0 0 0 0 0 0 0 0 0 0 0 0 0 0 0 0 0 0 0 0 0 0 0
0 0 0 0 0 0 0 0 0 0 0 0 0 0 0 0 0 0 0 0 0 0 0 0 0 0 0 0 0 0 0 0 0 0 0 0 0 0
0 0 0 0 0 0 0 0 0 0 0 0 0 0 0 0 0 0 0 0 0 0 0 0 0 0 0 0 0 0 0 0 0 0 0 0 0 0
0 0 0 0 0 0 0 0 0 0 0 0 0 0 0 0 0 0 0 0 0 0 0 0 0 0 0 0 0 0 0 0 0 0 0 0 0 0
0 0 0 0 0 0 0 0 0 0 0 0 0 0 0 0 0 0 0 0 0 0 0 0 0 0 0 0 0 0 0 0 0 0 0 0 0 0
0 0 0 0 0 0 0 0 0 0 0 0 0 0 0 0 0 0 0 0 0 0 0 0 0 0 0 0 0 0 0 0 0 0 0 0 0 0
0 0 0 0 0 0 0 0 0 0 0 0 0 0 0 0 0 0 0 0 0 0 0 0 0 0 0 0 0 0 0 0 0 0 0 0 0 0
0 0 0 0 0 0 0 0 0 0 0 0 0 0 0 0 0 0 0 0 0 0 0 0 0 0 0 0 0 0 0 0 0 0 0 0 0 0
0 0 0 0 0 0 0 0 0 0 0 0 0 0 0 0 0 0 0 0 0 0 0 0 0 0 0 0 0 0 0 0 0 0 0 0 0 0
0 0 0 0 0 0 0 0 0 0 0 0 0 0 0 0 0 0 0 0 0 0 0 0 0 0 0 0 0 0 0 0 0 0 0 0 0 0
Wind_Speed
2 2 2 2 2 2 2 3 4 6 6 4 3 3 4 4 5 6 6 9 11 13 14 14 13 12 12 13 14 14 14 13 13 14 15 15 16 16
1 1 2 2 2 2 2 2 3 5 6 3 3 3 4 4 6 6 7 8 11 13 14 13 13 13 12 12 13 14 14 14 14 15 16 16 16 16
2 1 1 2 2 2 2 2 2 3 7 4 2 3 3 4 4 5 5 6 6 11 12 13 13 13 13 13 13 13 14 14 15 16 17 17 17 17
3 2 2 2 2 2 2 2 2 3 4 7 4 3 4 4 4 5 4 4 5 8 11 12 12 12 12 13 13 13 14 14 15 15 16 17 18 18
3 3 3 2 2 2 2 2 2 3 3 5 5 3 3 2 4 4 4 4 5 6 10 11 11 11 12 12 13 13 14 14 15 15 16 17 17 18
3 3 3 3 3 3 2 3 3 3 3 4 4 3 3 3 2 4 4 4 5 5 7 7 9 11 11 12 13 13 13 13 15 16 16 16 17 18
3 3 4 5 6 4 3 3 3 3 3 3 4 4 3 3 3 3 6 5 5 4 4 4 5 6 7 10 10 11 13 14 14 15 16 16 17 18
4 4 4 4 6 7 7 7 6 4 4 4 4 4 5 4 4 4 5 5 5 3 4 6 4 6 6 6 10 13 13 14 15 15 15 16 16 17
4 4 4 5 6 4 6 7 7 9 8 5 5 5 6 5 5 6 5 6 7 4 4 7 4 7 6 7 13 14 15 15 15 15 15 15 16 16
5 5 4 5 6 5 4 4 4 5 6 4 4 5 6 5 5 6 7 6 5 4 4 6 5 6 6 6 12 15 15 14 14 15 15 15 15 15
5 5 5 4 9 11 6 5 5 5 8 9 9 9 11 11 8 5 4 4 6 4 3 4 3 4 5 6 7 12 13 13 14 14 14 14 15 14
4 5 8 9 11 11 6 5 6 6 6 7 7 8 7 8 10 5 4 5 5 4 2 2 2 2 4 3 3 4 6 11 14 14 14 14 13 8
4 5 5 12 12 12 9 5 7 8 5 5 5 5 5 4 4 4 4 5 5 5 3 2 3 3 4 5 4 4 5 5 6 8 11 13 13 10
4 4 5 12 12 12 8 9 12 9 4 4 4 4 4 5 5 5 6 6 7 8 7 5 5 5 5 7 6 4 4 5 5 6 5 9 11 12
4 8 10 12 11 8 9 11 9 5 4 4 5 5 5 5 6 5 6 6 7 7 7 7 6 6 6 7 6 5 5 5 5 5 4 4 5 5
5 6 9 9 8 8 8 6 4 4 5 5 5 5 5 5 5 5 6 6 6 6 5 5 6 6 6 7 7 7 5 4 4 4 4 4 4 4
5 3 3 4 4 4 4 4 4 5 5 5 5 6 6 5 5 4 5 5 6 6 6 4 4 5 7 7 6 6 6 5 5 4 3 4 4 4
5 3 4 4 5 5 6 6 5 5 5 5 5 6 6 6 6 5 5 5 6 6 6 5 4 4 3 4 7 6 5 5 4 4 4 4 5 3
3 3 4 4 5 5 5 5 6 6 6 6 6 6 6 6 6 6 5 5 6 6 5 4 4 3 5 6 4 4 4 4 4 4 4 4 4 4
3 3 4 4 5 5 5 6 6 7 6 6 6 6 6 6 6 6 5 6 6 6 6 4 3 4 5 5 5 5 5 5 4 4 3 2 2 2
4 4 4 5 5 5 6 6 6 6 7 7 6 7 6 6 6 6 6 9 7 5 6 6 5 7 4 3 3 4 3 3 4 3 2 2 1 1
4 5 5 5 5 5 5 6 6 6 7 6 7 7 6 6 7 8 7 6 5 5 6 6 5 4 2 3 4 4 4 3 2 2 2 2 2 3
4 5 5 5 5 5 5 6 7 6 6 7 6 7 7 6 6 7 7 6 5 5 5 5 4 3 2 2 3 3 3 3 2 1 2 2 2 1
Wind_Direction
248 257 262 271 265 260 259 247 249 261 258 235 225 223 230 233 236 229 236 242 241 244 247 250 251 247 245 245 246 247 247 245 244 243 243 239 240 244
255 270 287 300 294 282 265 262 248 251 263 259 242 242 235 245 246 235 239 250 243 246 247 246 246 245 244 245 246 246 243 242 243 242 243 242 242 244
358 357 327 326 308 304 297 285 277 263 263 271 264 272 255 251 257 245 241 238 243 247 251 251 248 245 245 245 245 246 243 242 243 244 243 243 245 246
14 13 349 348 333 325 314 298 291 285 272 276 274 270 263 268 266 261 257 253 250 253 253 256 254 249 247 247 247 246 243 244 245 246 245 245 245 246
21 15 355 356 346 339 331 321 309 307 289 283 282 270 266 294 286 279 275 264 268 268 259 256 258 260 257 254 253 250 245 243 244 244 246 247 245 246
16 14 8 6 346 334 332 325 316 309 302 295 294 287 276 283 280 278 281 270 275 280 267 266 267 265 261 260 256 251 248 247 248 247 248 247 246 245
7 9 9 8 2 357 350 334 322 306 300 294 292 297 290 295 278 278 277 278 266 256 263 263 262 253 251 255 254 251 249 248 249 251 251 249 247 245
2 357 354 0 2 360 356 353 345 325 305 292 290 293 293 289 288 287 285 282 272 244 258 269 257 258 255 247 258 260 257 256 253 253 251 249 247 247
6 358 357 354 351 338 344 346 342 336 324 301 292 288 290 292 288 280 275 276 272 266 261 264 251 257 257 259 262 259 257 257 256 255 252 251 247 244
6 358 349 338 337 339 335 334 326 325 322 314 290 289 295 295 285 283 278 278 278 265 237 258 255 260 269 257 257 255 254 254 256 257 254 252 251 245
360 0 353 341 346 350 345 332 329 327 333 332 326 320 320 321 317 306 298 291 289 277 240 247 263 280 275 262 256 256 259 261 260 257 257 256 253 249
353 351 356 354 350 349 344 335 328 323 324 326 327 325 321 320 324 307 288 282 289 284 249 250 268 299 290 264 250 249 254 261 265 261 259 256 253 249
347 340 339 348 349 350 349 340 328 326 323 317 313 313 314 314 311 300 285 271 272 273 266 259 269 268 267 286 284 261 252 257 256 254 255 253 250 244
334 325 330 345 349 350 349 343 340 336 321 315 313 313 313 310 303 293 284 272 260 261 263 253 261 261 273 280 279 269 256 252 254 254 246 246 245 242
331 337 342 348 349 347 346 345 343 333 321 318 315 308 300 294 297 297 294 284 275 265 258 254 254 256 256 268 270 265 277 267 245 244 243 237 235 225
335 340 347 351 349 341 339 338 330 321 320 310 306 301 299 297 298 300 301 303 296 290 270 253 249 249 264 266 262 266 260 255 253 246 249 254 242 227
338 344 343 337 338 333 328 325 324 324 322 309 306 307 306 305 301 299 293 297 292 294 300 296 274 259 254 255 259 255 256 258 253 252 250 255 248 228
356 345 337 333 334 333 332 331 329 329 322 314 309 307 309 307 304 300 293 293 293 292 291 294 307 313 305 276 237 243 247 250 250 244 242 246 252 242
1 337 330 328 327 326 324 322 321 322 319 316 314 311 308 304 302 300 298 295 293 292 290 287 288 294 299 301 289 237 245 260 254 247 238 243 246 238
341 331 326 324 322 320 320 319 319 320 320 318 317 315 311 307 305 301 295 292 295 298 298 290 276 275 275 280 288 288 258 248 245 245 250 263 263 241
332 327 323 322 320 319 319 317 315 314 315 314 313 313 312 311 308 305 299 300 302 296 295 296 288 297 295 285 286 292 293 268 249 243 235 234 244 217
323 320 318 317 317 314 313 313 313 313 314 312 312 313 312 310 309 310 307 303 302 296 295 296 297 303 296 280 284 293 308 324 338 316 292 257 214 201
316 313 311 310 308 305 305 307 308 307 307 307 307 308 308 308 308 307 306 305 304 304 306 307 311 311 297 283 290 300 308 316 334 3 355 348 324 264